Temp
22 21 22 24 28 30 30 30 30 30 29 29 30 30 28 27 28 27 23 22 23 23 23 22 22 21 21 21 21 21 22 22 22 22 21 21 21 21 21 21 21 21 20 20 21 20 20 21 21
22 22 23 25 30 31 30 30 29 29 29 30 29 28 28 26 26 24 24 22 23 23 23 23 22 21 21 21 21 21 21 21 21 21 21 21 21 22 21 21 21 21 21 21 20 21 20 20 21
22 23 25 27 30 31 31 30 29 29 30 30 29 29 28 27 25 25 23 22 22 23 23 22 22 21 21 21 21 21 21 21 21 21 21 21 21 21 21 22 21 21 21 21 21 20 20 20 21
23 24 25 30 31 31 31 30 30 30 30 30 30 28 28 26 25 24 23 23 23 23 23 22 22 21 21 21 21 21 21 22 21 21 21 21 21 21 21 21 22 21 21 21 20 21 20 20 20
24 25 30 31 32 31 31 31 30 30 30 29 29 28 27 26 25 23 23 23 23 22 22 22 22 22 21 21 22 22 22 22 22 21 21 21 21 21 21 21 22 21 21 21 21 21 20 20 21
25 26 32 32 31 31 31 31 31 30 29 29 29 28 27 24 23 23 23 23 23 23 22 22 22 22 22 22 22 22 22 22 22 21 21 21 21 21 21 21 21 22 21 21 20 21 20 20 21
28 30 31 31 32 31 31 31 31 30 30 29 29 28 26 25 23 23 23 22 22 22 22 22 22 21 21 22 22 22 22 21 21 21 21 21 21 21 21 21 21 21 21 21 21 20 20 20 20
28 31 32 32 32 33 32 31 31 31 30 30 30 29 28 27 23 23 22 22 22 22 22 22 22 22 22 22 21 21 21 21 21 21 21 21 21 21 21 21 21 21 21 21 21 21 20 20 20
29 32 33 33 33 33 32 31 31 31 30 30 30 30 29 25 24 24 23 22 22 22 22 22 22 21 21 21 22 21 21 21 21 21 21 21 22 22 21 21 21 21 20 21 21 21 21 21 21
31 33 34 34 35 34 32 32 31 31 30 30 29 27 26 25 24 25 25 25 23 23 22 22 22 21 21 21 21 21 21 21 21 21 21 21 22 21 21 21 21 20 20 20 21 21 21 21 22
31 34 35 35 35 35 34 32 32 31 30 31 30 28 27 26 26 26 26 25 24 24 23 22 21 21 21 21 21 21 22 22 21 21 21 20 20 20 20 21 21 21 21 22 21 22 22 21 21
33 34 34 36 34 34 33 33 32 32 34 33 31 29 27 27 27 26 26 25 25 24 24 23 22 21 21 21 21 21 22 21 22 21 21 21 20 21 20 21 20 20 21 21 21 21 21 21 21
33 35 36 35 34 34 33 33 33 31 32 31 30 28 28 28 27 26 26 26 25 24 24 23 22 22 21 21 21 22 22 21 21 21 22 21 21 20 20 22 22 21 21 21 20 20 20 20 21
35 35 35 34 33 34 33 33 32 34 31 30 29 28 29 28 28 27 26 26 25 25 24 23 23 23 23 23 23 23 22 21 21 21 22 22 21 21 21 21 22 22 21 22 20 21 20 20 20
34 34 34 34 32 33 34 33 32 33 31 30 30 29 29 28 27 27 27 26 26 25 24 23 23 24 24 24 23 23 23 22 21 20 20 21 20 21 21 21 22 22 22 21 20 20 21 20 20
34 33 35 34 33 32 34 36 34 33 32 31 30 30 28 28 28 27 27 26 25 25 24 24 23 23 24 24 23 23 22 20 20 20 19 20 20 20 21 21 22 22 20 20 20 20 20 20 20
33 35 34 35 33 33 33 35 32 32 32 31 30 30 29 29 28 27 27 27 26 25 24 24 25 23 24 24 23 23 22 21 20 19 19 19 19 19 20 21 22 22 21 20 20 20 20 21 20
33 33 34 33 34 32 33 34 35 31 31 32 31 30 30 30 30 28 27 27 27 25 24 24 25 23 23 23 23 22 21 21 20 19 19 19 19 19 20 21 21 21 20 20 20 20 20 20 20
32 32 32 34 34 34 35 34 35 33 31 31 31 30 30 31 32 30 28 27 27 25 24 23 24 23 23 23 21 20 21 20 20 20 20 19 19 19 20 21 20 20 21 21 20 19 19 20 19
32 32 33 34 33 33 35 34 35 35 33 33 32 31 31 31 31 30 28 27 26 26 24 21 21 21 20 22 22 22 21 20 21 20 20 19 19 20 20 20 20 20 20 19 19 19 20 20 19
33 33 33 33 33 33 33 34 35 36 33 33 33 32 31 31 31 30 29 27 27 24 20 21 23 22 23 22 20 20 20 21 20 20 20 21 20 20 20 19 20 21 20 21 20 19 19 20 20
33 34 33 34 33 34 32 34 33 34 34 34 33 32 31 31 30 31 29 27 25 19 21 24 26 26 25 22 23 20 20 21 22 21 21 20 20 20 20 20 20 20 20 20 20 19 20 20 21
34 32 32 32 32 32 32 33 36 31 34 35 34 33 32 31 31 30 31 27 20 23 22 24 26 25 24 22 22 21 19 20 21 21 20 20 20 20 20 20 21 20 19 19 19 19 19 19 20
31 32 30 29 32 33 32 33 36 36 35 35 32 31 31 31 30 30 28 25 21 20 23 24 26 29 27 24 20 20 19 20 21 21 21 20 20 20 19 19 20 19 19 19 19 19 19 19 19
32 32 32 32 33 33 29 31 35 35 32 30 30 30 31 30 30 29 27 26 21 20 20 21 23 27 25 23 21 19 20 20 21 22 22 21 21 21 19 20 19 19 18 19 19 19 19 19 19
32 33 33 31 32 34 28 32 35 32 29 28 27 29 31 30 28 28 27 26 21 19 21 19 22 24 26 25 20 21 19 20 21 22 22 22 22 21 20 20 19 18 19 19 19 19 19 18 19
31 32 31 30 26 32 32 32 34 33 31 28 28 27 28 28 26 26 26 24 23 20 19 20 23 23 22 23 20 20 20 20 20 22 22 21 21 21 19 18 18 18 19 19 19 19 19 18 18
33 31 32 31 30 31 32 31 34 34 33 29 28 28 26 26 26 26 25 23 23 23 22 20 21 20 20 20 20 20 20 19 20 20 21 21 20 19 18 18 18 18 18 19 19 18 18 18 18
31 32 29 31 30 33 32 33 33 32 31 29 28 27 27 26 27 26 26 23 24 22 21 20 20 20 19 19 19 19 20 20 19 20 19 19 19 19 19 18 18 18 18 17 18 18 17 18 18
32 32 32 33 30 29 31 34 30 29 28 28 28 27 27 26 26 25 24 25 24 23 21 21 20 19 20 20 20 19 19 19 19 19 19 19 19 18 18 19 18 17 18 18 17 17 17 17 17
Height
795 797 797 796 801 793 803 799 785 790 789 783 780 784 792 794 797 810 802 805 807 810 814 817 816 817 819 820 821 823 825 826 827 828 829 831 832 832 833 834 836 837 837 837 838 838 839 840 842
795 797 798 794 800 803 806 792 795 790 785 782 783 787 790 799 794 799 803 806 809 811 814 817 818 819 820 822 823 825 827 828 829 830 830 832 832 833 834 836 837 838 839 839 840 840 841 842 843
796 798 797 798 800 804 804 794 791 787 782 781 786 784 789 795 796 798 802 806 810 812 814 817 819 820 821 823 825 826 828 830 831 831 832 832 833 834 835 836 837 839 840 840 840 841 841 843 844
797 798 796 797 799 795 793 789 786 787 782 779 783 794 791 794 795 799 801 806 809 812 815 817 819 821 822 823 825 828 829 830 831 832 833 834 835 836 836 837 838 839 841 841 841 842 842 843 845
798 796 796 797 796 790 784 783 784 788 788 786 784 798 796 796 796 799 801 805 809 812 814 817 819 820 822 824 826 828 830 831 832 833 834 835 836 837 838 839 839 840 841 842 842 843 843 844 845
799 797 799 804 800 791 785 781 784 787 786 789 791 794 797 798 799 799 802 806 809 811 814 817 819 821 823 825 827 829 831 832 832 834 834 835 836 837 837 839 840 840 841 842 842 844 845 845 846
795 795 803 802 800 796 788 780 787 788 789 791 787 798 798 799 800 801 802 806 809 811 814 816 819 821 823 825 826 828 829 830 833 834 835 834 836 837 838 839 839 841 841 842 843 844 846 847 848
791 791 798 795 801 797 782 783 781 785 790 783 785 796 799 796 800 802 805 809 811 813 815 817 818 821 823 824 826 828 829 831 832 834 835 835 836 837 838 838 839 840 841 842 844 844 845 847 848
787 796 800 794 794 787 780 786 781 779 784 783 784 785 788 794 800 802 806 809 811 813 815 817 818 819 821 824 826 828 830 832 833 834 835 836 837 837 838 839 839 840 841 842 843 844 845 847 848
788 795 790 775 774 777 777 780 780 784 787 788 787 788 790 794 798 800 803 806 808 810 813 816 818 819 821 824 825 827 830 832 833 834 834 835 836 836 837 837 838 839 840 841 842 844 845 846 848
784 789 772 768 767 766 774 779 775 783 791 780 783 787 789 793 795 799 800 801 805 807 810 811 815 818 820 823 824 824 823 825 830 832 833 833 833 835 835 837 838 839 840 841 842 844 844 845 846
788 772 771 762 762 767 775 771 777 776 770 767 774 782 787 791 792 794 797 799 802 804 807 810 812 816 818 820 822 823 823 825 824 827 830 830 831 832 833 834 835 836 837 839 840 842 843 844 844
781 769 761 760 764 764 768 774 775 775 767 768 775 783 786 790 793 792 794 798 801 803 805 808 810 812 816 818 819 821 822 822 822 824 825 826 828 829 830 830 832 833 834 836 837 838 840 841 842
770 766 763 762 766 763 771 774 773 765 766 771 774 778 783 788 790 791 794 796 798 800 802 807 809 811 813 815 817 819 820 821 821 820 821 823 824 826 826 828 828 830 831 834 834 836 837 839 840
771 778 767 763 769 767 763 778 774 762 764 770 773 774 777 784 788 787 787 792 794 796 800 802 805 808 810 813 816 817 818 818 818 815 817 819 820 823 823 825 827 827 829 830 832 833 834 836 836
780 781 786 768 768 767 766 776 760 756 762 766 769 771 775 779 782 784 784 787 787 792 794 798 803 805 808 810 814 816 816 816 815 814 814 813 814 818 820 822 824 826 826 828 831 831 832 833 833
787 791 789 778 765 769 774 771 763 759 760 762 766 766 770 774 778 779 779 782 787 788 791 793 797 802 805 808 810 812 813 814 812 811 812 811 811 814 817 820 823 824 825 827 828 828 829 830 831
798 796 788 789 773 773 775 769 757 762 763 761 763 763 764 766 765 770 775 779 780 783 790 795 797 801 802 803 805 808 811 812 812 810 810 810 810 812 815 817 819 821 823 825 825 826 826 827 828
787 793 794 774 767 774 770 767 754 757 759 759 761 762 765 761 756 767 773 773 775 784 790 795 798 804 807 805 805 805 807 809 812 810 808 809 812 812 812 815 818 820 821 822 823 824 824 824 825
785 791 788 775 768 773 769 769 753 749 749 745 750 754 755 758 755 763 767 769 773 781 790 798 803 802 807 806 805 804 804 807 806 810 809 809 810 813 813 813 815 819 819 820 821 822 823 821 821
782 787 782 783 772 769 776 774 761 740 742 739 740 742 745 749 750 757 763 765 775 784 792 798 800 802 807 808 807 806 805 804 807 806 806 808 810 809 811 812 813 815 816 817 818 819 820 819 819
789 766 770 774 785 791 777 794 769 753 746 738 736 740 742 748 749 753 757 766 776 780 782 781 790 792 797 804 803 805 808 806 804 804 806 805 809 810 809 809 811 813 814 814 815 817 817 817 816
774 766 772 774 780 784 786 789 761 764 755 738 734 734 733 736 736 742 749 762 768 767 772 777 786 779 789 796 798 801 803 804 803 802 804 804 806 810 811 810 810 811 812 812 812 813 814 814 814
765 771 780 784 778 793 786 782 764 754 746 737 741 736 731 730 731 737 750 758 764 764 765 775 779 777 779 786 793 798 799 802 800 800 802 803 804 806 809 809 809 810 811 810 810 810 810 810 811
768 778 793 797 793 792 791 789 762 740 744 744 740 734 728 726 729 739 747 754 766 772 784 789 787 777 776 780 787 794 797 799 797 797 798 800 802 803 806 808 808 808 809 809 809 809 809 809 808
767 769 782 808 800 785 794 787 758 743 743 742 739 732 726 728 731 745 752 754 762 766 765 770 768 773 768 774 783 790 795 795 797 797 797 797 800 802 804 807 808 808 808 808 809 809 809 809 807
770 776 766 789 806 791 780 768 745 736 740 741 741 737 735 738 744 747 750 754 760 767 770 774 760 767 766 770 783 790 792 793 795 793 793 796 800 801 804 808 808 808 809 808 808 807 807 807 806
752 756 776 779 806 807 786 786 764 741 740 743 742 740 743 746 746 746 749 756 761 764 765 767 765 771 773 775 784 790 790 794 793 794 795 797 799 803 805 806 807 808 808 807 808 808 807 807 805
763 764 775 771 780 784 790 774 738 739 738 740 738 739 746 748 747 747 748 754 758 761 762 764 771 773 776 778 784 786 788 790 791 794 798 799 802 804 805 805 807 808 809 808 807 807 806 806 805
744 751 753 768 788 786 777 765 736 738 740 738 736 740 747 750 749 750 752 753 753 756 755 763 766 774 779 778 782 786 791 790 793 795 798 802 803 807 807 806 807 808 808 807 806 806 806 806 805
Wind_Speed
10 6 2 3 1 2 9 6 2 7 3 2 3 2 5 4 2 2 7 6 18 20 18 17 18 19 18 17 17 16 17 16 16 16 15 13 12 10 10 10 8 7 8 10 11 12 13 12 11
11 5 3 2 3 10 8 5 8 4 8 10 9 5 3 4 4 8 11 12 19 19 18 16 18 18 18 17 17 16 16 15 16 15 15 13 10 10 10 10 9 9 9 10 11 11 11 12 12
10 3 2 2 2 10 8 5 8 9 7 2 4 5 2 3 5 14 7 18 18 17 17 16 16 17 18 18 16 15 15 14 14 14 14 13 12 11 10 9 9 9 9 9 10 11 11 12 12
5 2 2 1 7 4 3 6 7 5 5 7 8 7 4 1 10 7 16 19 18 17 16 16 17 16 17 17 17 16 14 12 12 12 11 10 11 10 10 10 9 8 10 9 11 10 11 12 11
4 1 1 3 5 3 4 6 3 3 3 4 4 5 5 1 5 12 18 19 18 17 16 15 16 15 16 16 16 15 14 14 12 11 11 11 9 8 7 8 9 8 9 9 10 11 11 13 13
2 2 2 5 3 3 3 5 4 2 3 5 8 7 3 2 9 15 17 17 16 16 15 15 15 15 14 13 14 14 13 12 12 11 11 11 10 9 7 7 7 8 8 9 9 10 10 11 13
1 1 2 2 1 1 3 6 1 4 5 3 8 6 2 4 9 13 15 14 14 14 15 14 14 14 13 13 13 14 14 12 11 11 10 10 10 8 7 7 7 7 7 8 9 10 10 11 11
2 2 1 1 3 1 5 7 4 4 4 8 6 3 6 9 14 13 12 11 11 12 12 13 14 13 13 12 13 12 12 12 11 11 11 10 8 8 8 8 8 8 8 9 10 11 11 12 12
2 2 2 2 5 1 8 6 6 2 6 6 7 4 5 19 17 15 12 11 11 11 12 12 13 13 12 11 11 11 11 10 10 10 10 8 8 9 8 9 10 9 8 8 10 10 11 11 12
3 2 2 2 3 4 13 9 12 5 9 6 7 4 17 21 19 17 16 14 15 15 14 13 12 12 12 10 10 10 9 8 9 9 10 11 10 10 9 10 10 9 8 8 8 10 11 11 11
2 3 5 5 8 8 10 11 10 6 8 10 11 12 18 17 19 17 15 16 17 14 14 15 13 13 13 11 11 12 14 10 8 12 12 12 11 11 11 10 10 10 10 8 8 8 9 10 11
4 8 6 5 8 8 8 8 7 14 2 6 12 17 18 17 18 19 17 17 15 16 15 14 14 14 14 12 12 14 14 13 7 17 15 15 13 12 13 13 13 12 12 10 10 9 8 8 9
8 6 6 8 5 6 9 11 6 13 2 7 15 16 17 16 19 19 19 16 14 16 15 16 16 17 14 14 14 15 17 16 12 14 19 17 15 15 14 17 17 17 15 12 10 10 10 9 9
3 10 13 5 5 7 10 7 6 6 9 12 18 19 17 17 20 18 18 18 17 17 16 15 17 17 16 16 16 16 16 18 22 19 19 22 21 19 17 16 17 15 13 13 11 11 10 9 8
4 7 8 5 3 2 7 9 13 7 14 15 17 17 17 17 19 22 23 21 21 20 17 17 19 18 18 17 16 15 17 18 19 23 24 23 24 25 19 17 16 17 17 14 13 13 11 11 12
3 2 5 2 4 1 7 8 8 12 15 17 17 16 16 18 22 23 23 23 22 19 19 17 16 18 18 17 16 15 17 12 13 17 19 17 27 25 24 21 18 14 13 12 12 12 11 12 12
1 4 3 3 3 3 4 10 5 8 14 15 17 17 16 16 19 23 24 24 21 20 19 20 20 18 18 17 15 12 13 11 7 9 14 16 16 22 25 23 21 18 13 12 12 11 11 11 11
2 2 3 6 2 4 6 17 9 7 13 16 15 17 16 16 21 26 25 23 22 20 18 18 18 17 18 15 13 11 7 7 6 4 7 11 16 18 19 20 17 17 13 12 11 11 10 12 11
2 4 7 10 3 4 12 18 20 7 13 15 14 16 16 18 20 19 22 25 22 15 13 15 16 13 16 13 8 8 8 8 6 5 6 8 10 15 17 16 17 16 15 13 12 11 12 11 10
5 8 12 11 6 6 11 15 16 14 15 19 18 19 19 19 18 17 21 21 20 14 7 9 8 3 8 8 10 7 9 7 9 7 7 9 11 15 14 14 13 13 12 11 11 12 9 10 11
7 10 12 11 0 9 3 10 9 10 12 13 14 17 20 20 21 17 16 18 12 12 21 22 18 7 8 11 9 10 7 7 8 9 9 10 10 12 15 14 14 15 13 14 10 11 12 8 10
11 10 16 10 4 4 2 5 5 8 14 13 14 14 17 17 17 17 15 12 17 24 30 26 4 13 15 13 16 15 11 8 10 9 9 9 10 11 12 12 12 11 9 9 9 10 10 9 10
9 3 4 4 7 2 6 5 4 2 10 12 8 9 15 18 21 20 15 16 31 33 34 28 21 2 13 20 22 18 14 15 8 8 9 8 10 9 9 9 10 8 7 6 7 8 10 10 12
5 1 3 2 4 7 4 5 7 4 2 10 4 6 9 14 18 14 15 26 30 23 26 21 12 13 18 17 13 13 16 14 10 11 12 10 9 9 9 8 6 5 4 4 5 8 9 9 10
5 4 3 6 6 8 3 4 8 7 5 9 15 10 8 13 13 13 17 21 23 22 21 21 12 10 11 10 18 13 15 15 12 15 13 12 15 14 10 8 5 3 4 3 3 4 5 6 7
8 5 5 9 7 7 3 4 4 1 2 6 8 5 7 11 10 10 13 21 30 35 43 34 24 11 9 16 18 18 17 11 11 13 13 13 15 14 12 7 3 4 4 4 2 4 4 5 5
6 5 2 5 2 3 2 4 10 6 5 6 6 3 5 5 7 12 15 16 19 25 28 35 33 29 15 15 13 16 13 9 10 8 11 11 9 10 11 7 5 3 3 2 2 3 3 3 3
5 9 3 1 4 6 4 4 6 9 7 5 7 4 5 7 9 9 9 17 18 16 21 34 30 14 10 15 15 12 8 7 5 6 7 8 10 11 9 5 3 2 2 2 1 0 1 2 2
4 4 3 2 2 5 8 4 6 5 5 8 7 5 8 10 9 7 9 8 7 14 16 18 21 13 17 17 14 11 8 7 9 7 5 7 7 8 7 5 3 2 1 1 1 1 1 2 2
2 3 5 4 5 1 3 5 2 5 6 6 8 6 7 4 3 5 5 6 7 16 21 16 16 17 17 16 13 9 8 10 9 8 8 7 9 6 5 5 4 4 2 1 1 1 1 2 3
Wind_Direction
160 168 249 279 233 58 55 42 37 124 95 93 97 94 94 53 1 39 136 151 151 150 152 154 155 148 144 144 142 142 144 147 152 154 155 159 154 155 150 148 144 147 144 131 123 125 129 132 134
165 172 253 282 43 62 62 39 58 73 112 113 97 115 87 71 68 115 135 151 153 152 152 156 156 152 150 151 151 152 148 149 151 150 150 147 155 155 157 154 152 145 148 138 139 129 133 133 132
156 170 281 351 45 54 64 63 86 110 145 131 114 56 36 76 107 141 129 148 152 154 154 160 158 157 154 157 160 158 155 159 157 151 152 156 160 157 159 153 155 155 149 147 145 137 137 136 144
153 216 224 51 72 68 78 122 117 118 86 87 98 80 89 352 142 155 146 152 155 157 160 167 162 160 159 163 166 167 168 164 165 160 158 153 155 151 153 150 154 163 163 156 150 145 141 144 148
138 230 42 77 64 83 112 143 134 79 96 78 107 115 99 70 149 145 150 159 160 160 165 170 169 165 166 170 170 174 174 171 174 172 170 166 167 168 164 153 154 162 168 158 151 155 152 155 160
129 271 88 70 62 79 116 168 160 133 131 123 115 113 70 97 141 150 152 165 165 163 167 174 178 172 173 178 178 184 182 180 184 180 182 178 180 184 180 174 176 168 166 167 158 160 160 163 160
326 7 57 106 86 174 181 165 213 138 135 121 133 129 96 169 153 152 156 165 168 170 171 171 176 180 178 184 186 189 189 187 192 195 197 196 194 196 181 185 183 189 179 167 170 170 171 173 174
249 302 175 168 200 337 155 162 159 167 132 131 178 174 164 180 161 152 153 164 171 179 184 180 177 181 182 188 195 197 197 196 203 208 207 208 206 206 197 189 189 190 194 183 179 182 180 185 187
209 299 266 200 187 144 155 168 174 216 166 175 187 170 146 153 160 153 161 174 184 196 195 192 190 185 186 185 192 201 206 210 213 220 227 220 214 212 206 205 200 195 200 197 187 184 194 194 197
242 277 249 226 212 208 174 179 172 182 173 202 195 107 145 158 170 169 177 186 198 203 202 204 202 199 192 190 194 193 198 215 230 230 227 221 221 219 210 213 210 207 204 206 200 195 194 193 200
161 274 308 271 209 197 181 194 182 189 192 216 199 170 167 174 178 189 189 196 204 205 204 206 206 205 201 197 197 198 200 202 246 249 234 230 226 220 225 221 215 211 210 206 208 206 199 203 202
247 249 258 270 190 174 177 166 200 204 178 205 180 171 175 187 186 194 202 200 203 207 210 212 209 212 209 206 207 210 205 206 249 237 240 237 232 225 226 224 218 216 209 206 202 204 211 208 209
255 274 278 269 251 219 152 191 208 220 198 167 152 170 185 194 198 202 208 210 207 216 214 215 213 213 215 217 219 219 215 216 211 225 231 229 233 233 235 233 230 232 224 212 213 212 215 219 225
255 283 293 333 308 213 197 197 202 218 169 157 163 180 191 203 205 206 212 214 214 217 220 216 220 216 218 222 226 226 228 233 233 228 230 239 232 233 232 241 239 225 212 217 213 214 217 224 226
295 288 308 318 342 159 189 226 229 200 179 174 185 188 191 206 212 214 212 213 214 218 219 215 218 218 218 225 232 235 243 248 246 240 238 242 236 235 237 239 243 226 215 216 218 220 226 229 239
256 259 295 51 168 74 227 277 227 191 181 195 194 197 196 206 215 219 219 219 218 217 219 218 218 217 220 221 234 249 257 264 264 260 241 245 231 228 226 237 232 236 209 213 219 220 232 239 243
329 262 282 299 154 126 228 285 28 201 204 203 198 204 200 210 216 223 224 225 223 220 219 222 221 217 220 222 226 245 258 264 260 258 237 231 218 216 227 225 222 225 217 224 226 231 234 244 246
242 290 287 273 105 214 253 263 247 191 222 232 209 213 203 209 222 218 221 228 226 223 223 231 226 223 217 212 220 230 233 247 246 221 229 230 217 207 215 227 223 212 215 224 229 232 238 247 248
263 263 274 275 235 265 269 268 279 235 226 235 226 218 220 220 227 220 223 220 224 217 216 226 229 226 221 204 205 215 203 207 239 210 191 195 205 203 203 202 209 214 223 236 239 236 238 246 237
235 266 263 282 275 204 267 269 278 269 245 241 226 220 219 223 232 221 215 215 218 201 160 89 58 212 250 256 247 234 211 209 193 216 198 194 199 214 210 201 204 218 231 232 240 232 229 230 210
246 253 269 260 218 224 279 272 273 281 255 259 248 233 226 219 228 224 217 210 194 132 111 85 54 22 282 267 277 268 224 211 205 204 202 207 207 206 216 219 226 233 237 240 228 231 224 233 216
260 254 252 260 212 271 227 292 261 286 289 277 261 234 234 227 230 235 221 196 131 127 125 132 323 246 248 273 290 261 256 226 212 199 202 194 209 212 205 205 211 220 215 219 224 228 229 228 229
258 263 285 254 202 193 196 243 267 280 285 279 315 259 238 222 220 219 214 157 150 157 150 157 201 177 296 305 278 254 248 248 218 197 194 192 195 207 202 205 199 202 215 224 222 230 233 231 235
122 234 65 87 174 235 161 252 270 249 253 305 122 330 238 216 217 215 173 151 158 158 159 156 123 358 303 306 254 249 244 238 212 199 196 190 188 182 183 188 193 214 224 228 234 232 230 226 232
190 210 239 210 206 245 105 214 275 271 316 301 308 296 236 210 206 170 152 154 146 136 120 143 142 358 313 284 244 244 246 237 222 218 213 200 203 182 198 193 195 212 189 200 218 236 250 246 253
198 216 231 237 227 249 126 225 262 274 303 314 309 283 219 203 188 136 137 150 146 161 175 168 174 216 229 238 252 242 229 226 233 227 221 213 216 194 184 189 186 163 168 163 204 223 233 248 255
156 207 63 113 56 254 281 262 271 260 250 323 305 237 203 169 124 140 148 139 152 176 178 184 184 220 207 203 219 211 208 219 231 239 232 211 211 182 157 163 132 133 178 184 183 193 209 251 274
226 141 179 178 180 241 213 262 266 277 246 257 258 221 144 134 150 157 158 146 148 160 177 190 201 216 204 166 183 190 184 198 186 162 146 167 156 154 154 146 139 161 163 178 199 220 304 300 309
152 183 68 116 284 268 269 245 229 268 232 231 240 199 150 156 168 167 165 162 143 121 135 157 180 179 168 163 164 160 165 159 154 150 141 141 142 151 148 144 141 154 191 225 242 272 333 349 6
161 178 177 233 195 219 288 246 188 199 210 233 239 194 133 137 147 169 165 187 179 155 128 145 145 164 165 146 145 137 140 129 148 151 149 148 145 152 156 136 120 114 84 20 94 123 61 43 27